| time (UTC) | temp F | wind direction | speed MPH | gust MPH | rain 1hr in | rain 24hr in | rain mn in | humidity % | barometer mb |
| 20260504020304 | 59 | 119 | 6.0 | 14.0 | 0.00 | 0.00 | 0.00 | 34 | 1013.2 |
| 20260504015804 | 59 | 135 | 6.0 | 14.0 | 0.00 | 0.00 | 0.00 | 34 | 1013.2 |
| 20260504014804 | 60 | 119 | 3.0 | 10.0 | 0.00 | 0.00 | 0.00 | 34 | 1012.8 |
| 20260504014305 | 60 | 110 | 5.0 | 13.0 | 0.00 | 0.00 | 0.00 | 33 | 1012.9 |
| 20260504013303 | 62 | 103 | 6.0 | 15.0 | 0.00 | 0.00 | 0.00 | 32 | 1012.5 |
| 20260504012304 | 62 | 115 | 6.0 | 16.0 | 0.00 | 0.00 | 0.00 | 32 | 1012.4 |
| 20260504011804 | 63 | 114 | 6.0 | 13.0 | 0.00 | 0.00 | 0.00 | 32 | 1012.3 |
| 20260504011304 | 63 | 91 | 7.0 | 16.0 | 0.00 | 0.00 | 0.00 | 32 | 1012.2 |
| 20260504010804 | 64 | 110 | 6.0 | 16.0 | 0.00 | 0.00 | 0.00 | 32 | 1012.0 |
| 20260504010304 | 64 | 132 | 5.0 | 13.0 | 0.00 | 0.00 | 0.00 | 31 | 1012.0 |
| 20260504005305 | 64 | 101 | 7.0 | 16.0 | 0.00 | 0.00 | 0.00 | 31 | 1012.1 |
| 20260504004804 | 65 | 119 | 6.0 | 15.0 | 0.00 | 0.00 | 0.00 | 31 | 1011.9 |
| 20260504003804 | 65 | 130 | 5.0 | 15.0 | 0.00 | 0.00 | 0.00 | 31 | 1011.9 |
| 20260504003304 | 65 | 145 | 6.0 | 16.0 | 0.00 | 0.00 | 0.00 | 31 | 1011.9 |
| 20260504002804 | 66 | 115 | 5.0 | 17.0 | 0.00 | 0.00 | 0.00 | 31 | 1011.7 |
| 20260504001804 | 66 | 131 | 7.0 | 14.0 | 0.00 | 0.00 | 0.00 | 31 | 1011.9 |
| 20260504001304 | 66 | 152 | 7.0 | 13.0 | 0.00 | 0.00 | 0.00 | 32 | 1011.9 |
| 20260504000304 | 66 | 160 | 5.0 | 16.0 | 0.00 | 0.00 | 0.00 | 31 | 1011.6 |
| 20260503235804 | 66 | 122 | 6.0 | 15.0 | 0.00 | 0.00 | 0.00 | 31 | 1011.6 |
| 20260503235304 | 66 | 122 | 6.0 | 15.0 | 0.00 | 0.00 | 0.00 | 31 | 1011.5 |
| 20260503234804 | 67 | 154 | 8.0 | 15.0 | 0.00 | 0.00 | 0.00 | 30 | 1011.5 |
| 20260503233803 | 67 | 99 | 7.0 | 15.0 | 0.00 | 0.00 | 0.00 | 30 | 1011.4 |
| 20260503233304 | 67 | 109 | 7.0 | 15.0 | 0.00 | 0.00 | 0.00 | 30 | 1011.5 |
| 20260503232804 | 67 | 117 | 7.0 | 15.0 | 0.00 | 0.00 | 0.00 | 30 | 1011.4 |
| 20260503231804 | 67 | 133 | 5.0 | 17.0 | 0.00 | 0.00 | 0.00 | 30 | 1011.4 |
| 20260503231304 | 67 | 125 | 7.0 | 14.0 | 0.00 | 0.00 | 0.00 | 29 | 1011.3 |
| 20260503230804 | 68 | 107 | 6.0 | 14.0 | 0.00 | 0.00 | 0.00 | 29 | 1011.3 |
| 20260503230304 | 68 | 122 | 8.0 | 16.0 | 0.00 | 0.00 | 0.00 | 28 | 1011.3 |
| 20260503225804 | 68 | 110 | 6.0 | 17.0 | 0.00 | 0.00 | 0.00 | 29 | 1011.3 |
| 20260503225305 | 68 | 158 | 7.0 | 13.0 | 0.00 | 0.00 | 0.00 | 29 | 1011.3 |
| 20260503224804 | 69 | 118 | 8.0 | 17.0 | 0.00 | 0.00 | 0.00 | 28 | 1011.5 |
| 20260503224304 | 69 | 99 | 7.0 | 15.0 | 0.00 | 0.00 | 0.00 | 28 | 1011.6 |
| 20260503223804 | 69 | 106 | 6.0 | 14.0 | 0.00 | 0.00 | 0.00 | 28 | 1011.3 |
| 20260503223304 | 69 | 125 | 7.0 | 14.0 | 0.00 | 0.00 | 0.00 | 28 | 1011.2 |
| 20260503222804 | 70 | 142 | 6.0 | 14.0 | 0.00 | 0.00 | 0.00 | 27 | 1011.3 |
| 20260503222304 | 70 | 149 | 6.0 | 14.0 | 0.00 | 0.00 | 0.00 | 27 | 1011.3 |
| 20260503221804 | 70 | 185 | 6.0 | 13.0 | 0.00 | 0.00 | 0.00 | 27 | 1011.0 |
| 20260503221304 | 71 | 165 | 5.0 | 8.0 | 0.00 | 0.00 | 0.00 | 26 | 1011.1 |
| 20260503220804 | 71 | 141 | 2.0 | 13.0 | 0.00 | 0.00 | 0.00 | 25 | 1011.0 |
| 20260503220303 | 71 | 112 | 3.0 | 10.0 | 0.00 | 0.00 | 0.00 | 25 | 1011.0 |
| 20260503215804 | 70 | 132 | 6.0 | 13.0 | 0.00 | 0.00 | 0.00 | 26 | 1011.0 |
| 20260503215304 | 70 | 134 | 2.0 | 10.0 | 0.00 | 0.00 | 0.00 | 25 | 1011.2 |
| 20260503214804 | 70 | 141 | 3.0 | 10.0 | 0.00 | 0.00 | 0.00 | 25 | 1011.1 |
| 20260503214304 | 70 | 151 | 3.0 | 10.0 | 0.00 | 0.00 | 0.00 | 25 | 1011.1 |
| 20260503213804 | 70 | 157 | 2.0 | 8.0 | 0.00 | 0.00 | 0.00 | 26 | 1011.1 |
| 20260503213304 | 70 | 129 | 3.0 | 10.0 | 0.00 | 0.00 | 0.00 | 25 | 1011.3 |
| 20260503212804 | 70 | 104 | 5.0 | 13.0 | 0.00 | 0.00 | 0.00 | 26 | 1011.2 |
| 20260503212305 | 70 | 135 | 3.0 | 10.0 | 0.00 | 0.00 | 0.00 | 25 | 1011.3 |
| 20260503211804 | 70 | 106 | 3.0 | 10.0 | 0.00 | 0.00 | 0.00 | 26 | 1011.4 |
| 20260503211304 | 69 | 98 | 3.0 | 10.0 | 0.00 | 0.00 | 0.00 | 26 | 1011.3 |
| 20260503210804 | 69 | 103 | 5.0 | 9.0 | 0.00 | 0.00 | 0.00 | 26 | 1011.3 |
| 20260503210303 | 69 | 162 | 2.0 | 8.0 | 0.00 | 0.00 | 0.00 | 25 | 1011.4 |
| 20260503205804 | 69 | 116 | 3.0 | 9.0 | 0.00 | 0.00 | 0.00 | 26 | 1011.5 |
| 20260503205304 | 69 | 169 | 3.0 | 9.0 | 0.00 | 0.00 | 0.00 | 26 | 1011.5 |
| 20260503204804 | 69 | 136 | 3.0 | 8.0 | 0.00 | 0.00 | 0.00 | 25 | 1011.7 |
| 20260503204304 | 69 | 127 | 5.0 | 10.0 | 0.00 | 0.00 | 0.00 | 26 | 1011.5 |
| 20260503203804 | 69 | 134 | 5.0 | 7.0 | 0.00 | 0.00 | 0.00 | 25 | 1011.8 |
| 20260503203304 | 69 | 107 | 2.0 | 9.0 | 0.00 | 0.00 | 0.00 | 26 | 1011.7 |
| 20260503202804 | 69 | 137 | 3.0 | 9.0 | 0.00 | 0.00 | 0.00 | 26 | 1011.7 |
| 20260503202304 | 69 | 166 | 4.0 | 9.0 | 0.00 | 0.00 | 0.00 | 26 | 1011.9 |
| 20260503201803 | 69 | 163 | 4.0 | 8.0 | 0.00 | 0.00 | 0.00 | 26 | 1011.9 |
| 20260503200804 | 69 | 104 | 5.0 | 9.0 | 0.00 | 0.00 | 0.00 | 26 | 1011.8 |
| 20260503200303 | 69 | 134 | 3.0 | 8.0 | 0.00 | 0.00 | 0.00 | 27 | 1011.8 |
| 20260503195803 | 69 | 111 | 4.0 | 12.0 | 0.00 | 0.00 | 0.00 | 26 | 1011.9 |
| 20260503195305 | 69 | 131 | 5.0 | 14.0 | 0.00 | 0.00 | 0.00 | 25 | 1012.0 |
| 20260503194804 | 69 | 137 | 2.0 | 8.0 | 0.00 | 0.00 | 0.00 | 26 | 1012.2 |
| 20260503194304 | 70 | 164 | 3.0 | 9.0 | 0.00 | 0.00 | 0.00 | 25 | 1012.2 |
| 20260503193804 | 70 | 128 | 4.0 | 7.0 | 0.00 | 0.00 | 0.00 | 25 | 1012.4 |
| 20260503193304 | 70 | 133 | 3.0 | 12.0 | 0.00 | 0.00 | 0.00 | 25 | 1012.3 |
| 20260503192804 | 70 | 102 | 3.0 | 9.0 | 0.00 | 0.00 | 0.00 | 25 | 1012.4 |
| 20260503192305 | 70 | 116 | 5.0 | 12.0 | 0.00 | 0.00 | 0.00 | 25 | 1012.4 |
| 20260503191304 | 70 | 136 | 1.0 | 20.0 | 0.00 | 0.00 | 0.00 | 24 | 1012.6 |
| 20260503190805 | 70 | 110 | 3.0 | 20.0 | 0.00 | 0.00 | 0.00 | 26 | 1012.5 |
| 20260503190303 | 70 | 112 | 3.0 | 6.0 | 0.00 | 0.00 | 0.00 | 24 | 1012.8 |
| 20260503185804 | 69 | 80 | 2.0 | 9.0 | 0.00 | 0.00 | 0.00 | 26 | 1012.7 |
| 20260503185305 | 69 | 101 | 2.0 | 6.0 | 0.00 | 0.00 | 0.00 | 25 | 1012.8 |
| 20260503184805 | 69 | 106 | 2.0 | 13.0 | 0.00 | 0.00 | 0.00 | 25 | 1013.1 |
| 20260503184304 | 70 | 102 | 6.0 | 9.0 | 0.00 | 0.00 | 0.00 | 25 | 1013.0 |
| 20260503183805 | 70 | 100 | 6.0 | 12.0 | 0.00 | 0.00 | 0.00 | 26 | 1013.0 |
| 20260503183304 | 70 | 102 | 4.0 | 10.0 | 0.00 | 0.00 | 0.00 | 25 | 1013.2 |
| 20260503182804 | 70 | 113 | 4.0 | 10.0 | 0.00 | 0.00 | 0.00 | 26 | 1013.3 |
| 20260503182305 | 69 | 91 | 5.0 | 10.0 | 0.00 | 0.00 | 0.00 | 26 | 1013.1 |
| 20260503181304 | 69 | 111 | 5.0 | 12.0 | 0.00 | 0.00 | 0.00 | 25 | 1013.2 |
| 20260503180305 | 71 | 108 | 4.0 | 14.0 | 0.00 | 0.00 | 0.00 | 25 | 1013.3 |
| 20260503175804 | 71 | 115 | 5.0 | 10.0 | 0.00 | 0.00 | 0.00 | 26 | 1013.4 |
| 20260503175305 | 71 | 94 | 5.0 | 12.0 | 0.00 | 0.00 | 0.00 | 25 | 1013.4 |
| 20260503174803 | 70 | 119 | 5.0 | 12.0 | 0.00 | 0.00 | 0.00 | 23 | 1013.6 |
| 20260503173804 | 71 | 95 | 4.0 | 14.0 | 0.00 | 0.00 | 0.00 | 24 | 1013.7 |
| 20260503173304 | 71 | 103 | 4.0 | 13.0 | 0.00 | 0.00 | 0.00 | 25 | 1013.7 |
| 20260503172804 | 70 | 52 | 5.0 | 12.0 | 0.00 | 0.00 | 0.00 | 24 | 1013.9 |
| 20260503172305 | 70 | 108 | 6.0 | 14.0 | 0.00 | 0.00 | 0.00 | 24 | 1013.9 |
| 20260503171304 | 71 | 117 | 5.0 | 13.0 | 0.00 | 0.00 | 0.00 | 23 | 1013.8 |
| 20260503170804 | 73 | 73 | 3.0 | 7.0 | 0.00 | 0.00 | 0.00 | 24 | 1014.2 |
| 20260503170304 | 72 | 100 | 3.0 | 13.0 | 0.00 | 0.00 | 0.00 | 23 | 1013.9 |
| 20260503150304 | 61 | 27 | 2.0 | 3.0 | 0.00 | 0.00 | 0.00 | 35 | 1014.5 |
| 20260503140304 | 52 | 58 | 1.0 | 2.0 | 0.00 | 0.00 | 0.00 | 43 | 1014.7 |
| 20260503131305 | 48 | 9 | 1.0 | 2.0 | 0.00 | 0.00 | 0.00 | 44 | 1014.5 |
| 20260503130804 | 48 | 39 | 1.0 | 2.0 | 0.00 | 0.00 | 0.00 | 44 | 1014.5 |
| 20260503130304 | 47 | 6 | 1.0 | 3.0 | 0.00 | 0.00 | 0.00 | 45 | 1014.7 |
| 20260503110804 | 46 | 73 | 1.0 | 3.0 | 0.00 | 0.00 | 0.00 | 45 | 1015.0 |
| 20260503110304 | 47 | 68 | 1.0 | 3.0 | 0.00 | 0.00 | 0.00 | 43 | 1015.1 |
| 20260503081305 | 48 | 80 | 1.0 | 3.0 | 0.00 | 0.00 | 0.00 | 40 | 1014.9 |
| 20260503080803 | 48 | 47 | 2.0 | 5.0 | 0.00 | 0.00 | 0.00 | 40 | 1015.0 |
| 20260503080303 | 48 | 19 | 1.0 | 3.0 | 0.00 | 0.00 | 0.00 | 39 | 1015.0 |
| 20260503072803 | 49 | 51 | 1.0 | 3.0 | 0.00 | 0.00 | 0.00 | 37 | 1015.1 |
| 20260503072305 | 49 | 19 | 2.0 | 2.0 | 0.00 | 0.00 | 0.00 | 37 | 1015.2 |
| 20260503071804 | 49 | 65 | 1.0 | 5.0 | 0.00 | 0.00 | 0.00 | 37 | 1015.1 |
| 20260503071304 | 49 | 16 | 1.0 | 2.0 | 0.00 | 0.00 | 0.00 | 37 | 1015.0 |
| 20260503070305 | 49 | 28 | 1.0 | 3.0 | 0.00 | 0.00 | 0.00 | 37 | 1015.2 |
| 20260503060306 | 49 | 71 | 1.0 | 2.0 | 0.00 | 0.00 | 0.00 | 39 | 1014.9 |
| 20260503054804 | 50 | 36 | 1.0 | 1.0 | 0.00 | 0.00 | 0.00 | 39 | 1014.9 |
| 20260503053804 | 50 | 12 | 1.0 | 2.0 | 0.00 | 0.00 | 0.00 | 40 | 1014.9 |
| 20260503053304 | 50 | 37 | 0.0 | 1.0 | 0.00 | 0.00 | 0.00 | 41 | 1014.9 |
| 20260503052804 | 50 | 104 | 0.0 | 2.0 | 0.00 | 0.00 | 0.00 | 42 | 1014.9 |
| 20260503051805 | 50 | 84 | 0.0 | 1.0 | 0.00 | 0.00 | 0.00 | 44 | 1015.0 |
| 20260503050804 | 51 | 36 | 0.0 | 1.0 | 0.00 | 0.00 | 0.00 | 42 | 1014.9 |
| 20260503050304 | 51 | 9 | 0.0 | 1.0 | 0.00 | 0.00 | 0.00 | 45 | 1014.9 |
| 20260503045804 | 51 | 11 | 0.0 | 1.0 | 0.00 | 0.00 | 0.00 | 43 | 1015.1 |
| 20260503045305 | 52 | 335 | 0.0 | 1.0 | 0.00 | 0.00 | 0.00 | 44 | 1014.9 |
| 20260503044804 | 52 | 32 | 0.0 | 0.0 | 0.00 | 0.00 | 0.00 | 43 | 1014.9 |
| 20260503044303 | 53 | 12 | 0.0 | 1.0 | 0.00 | 0.00 | 0.00 | 44 | 1014.9 |
| 20260503043803 | 53 | 67 | 0.0 | 2.0 | 0.00 | 0.00 | 0.00 | 44 | 1014.8 |
| 20260503043304 | 53 | 45 | 0.0 | 2.0 | 0.00 | 0.00 | 0.00 | 46 | 1014.9 |
| 20260503042804 | 54 | 102 | 0.0 | 2.0 | 0.00 | 0.00 | 0.00 | 48 | 1015.0 |
| 20260503042305 | 54 | 105 | 0.0 | 2.0 | 0.00 | 0.00 | 0.00 | 48 | 1014.9 |
| 20260503041804 | 54 | 61 | 0.0 | 1.0 | 0.00 | 0.00 | 0.00 | 50 | 1014.8 |
| 20260503041304 | 54 | 19 | 1.0 | 2.0 | 0.00 | 0.00 | 0.00 | 50 | 1014.7 |
| 20260503040804 | 55 | 322 | 1.0 | 3.0 | 0.00 | 0.00 | 0.00 | 50 | 1014.7 |
| 20260503035804 | 55 | 348 | 1.0 | 6.0 | 0.00 | 0.00 | 0.00 | 49 | 1014.8 |
| 20260503035305 | 56 | 339 | 2.0 | 6.0 | 0.00 | 0.00 | 0.00 | 48 | 1014.5 |
| 20260503034804 | 56 | 28 | 2.0 | 5.0 | 0.00 | 0.00 | 0.00 | 48 | 1014.6 |
| 20260503034304 | 56 | 304 | 2.0 | 7.0 | 0.00 | 0.00 | 0.00 | 46 | 1014.5 |
| 20260503032304 | 58 | 296 | 3.0 | 7.0 | 0.00 | 0.00 | 0.00 | 46 | 1014.4 |
| 20260503031804 | 58 | 305 | 4.0 | 7.0 | 0.00 | 0.00 | 0.00 | 46 | 1014.4 |
| 20260503031304 | 58 | 300 | 4.0 | 9.0 | 0.00 | 0.00 | 0.00 | 47 | 1014.3 |
| 20260503030803 | 58 | 293 | 4.0 | 9.0 | 0.00 | 0.00 | 0.00 | 46 | 1014.2 |
| 20260503030303 | 58 | 299 | 1.0 | 5.0 | 0.00 | 0.00 | 0.00 | 46 | 1014.2 |
| 20260503025804 | 58 | 303 | 2.0 | 8.0 | 0.00 | 0.00 | 0.00 | 46 | 1014.2 |
| 20260503025305 | 59 | 293 | 1.0 | 5.0 | 0.00 | 0.00 | 0.00 | 45 | 1014.3 |
| 20260503024305 | 60 | 321 | 3.0 | 10.0 | 0.00 | 0.00 | 0.00 | 43 | 1014.2 |
| 20260503023804 | 60 | 290 | 7.0 | 9.0 | 0.00 | 0.00 | 0.00 | 43 | 1014.3 |
| 20260503023304 | 60 | 293 | 5.0 | 9.0 | 0.00 | 0.00 | 0.00 | 42 | 1014.1 |
| 20260503022805 | 61 | 294 | 3.0 | 8.0 | 0.00 | 0.00 | 0.00 | 42 | 1014.3 |
| 20260503022305 | 61 | 272 | 3.0 | 9.0 | 0.00 | 0.00 | 0.00 | 41 | 1014.2 |
| 20260503021804 | 61 | 285 | 4.0 | 14.0 | 0.00 | 0.00 | 0.00 | 40 | 1013.9 |
| 20260503021304 | 61 | 296 | 5.0 | 10.0 | 0.00 | 0.00 | 0.00 | 40 | 1014.3 |